Orbital Elements at Epoch 2459200.5 (2020-Dec-17.0) TDB
Reference: JPL 30 (heliocentric ecliptic J2000)
Element | Value | Uncertainty (1-sigma) | Units |
e | .1908340993271285 | 3.2707e-08 | |
a | 2.404020655631098 | 1.0522e-08 | au |
q | 1.945251539049924 | 7.7753e-08 | au |
i | 2.292127838419642 | 4.3192e-06 | deg |
node | 72.35615930951954 | 9.4925e-05 | deg |
peri | 260.2534415926023 | 9.5819e-05 | deg |
M | 198.7677119256313 | 1.5756e-05 | deg |
tp | 2459810.254810934942 (2022-Aug-18.75481093) | 6.1884e-05 | TDB |
period | 1361.462611231621 3.73 | 8.9379e-06 2.447e-08 | d yr |
n | .2644215103889874 | 1.7359e-09 | deg/d |
Q | 2.862789772212271 | 1.2529e-08 | au |
|
| | Orbit Determination Parameters
Additional Information
|